Theta_e
312 312 315 313 309 310 309 309 308 308 309 309 308 309 303 303 296 294 292 290 290 290 292 293 292 292 291 291 291 290 290 291 290 289 289 288 288 288 287 287 286 287 287 289
312 314 312 311 310 309 309 310 309 308 307 307 307 307 306 303 299 297 294 290 290 290 290 291 292 292 291 291 290 290 290 290 289 288 287 287 286 285 285 285 284 284 284 285
314 314 308 308 308 308 308 310 308 308 306 304 303 304 306 301 300 294 293 292 290 290 290 290 291 291 291 290 290 290 290 289 288 287 286 285 284 284 284 283 283 283 282 282
309 308 308 307 308 307 308 306 307 307 305 305 302 305 304 298 299 295 294 291 289 289 290 290 291 291 291 290 290 289 288 288 287 286 285 284 283 282 282 282 281 281 280 280
314 305 306 307 307 307 307 305 305 305 304 302 302 301 302 297 298 296 294 291 288 289 289 289 291 291 290 290 289 289 287 287 286 285 284 283 282 281 281 280 280 279 279 279
309 305 305 306 307 307 306 305 303 302 300 302 302 301 300 296 299 298 295 290 289 288 288 289 291 290 290 289 289 287 286 286 285 284 283 282 281 279 279 279 278 278 278 279
309 307 305 307 307 307 307 303 308 307 304 309 299 300 306 300 297 297 296 290 288 288 287 288 288 288 289 288 288 286 285 285 284 282 281 280 279 279 278 278 278 277 277 277
312 313 306 305 306 308 306 303 309 309 308 314 299 304 304 295 291 295 294 290 288 287 287 288 288 288 288 287 286 285 284 283 282 281 280 279 278 278 277 277 277 276 276 275
309 309 302 302 302 303 304 302 301 302 286 295 301 300 299 292 290 289 289 288 287 287 287 287 287 288 287 286 286 284 283 282 281 279 278 277 277 276 277 276 275 275 275 274
310 311 303 299 300 299 301 300 303 301 307 305 306 305 307 293 291 289 288 288 287 287 287 287 287 287 287 286 285 283 282 280 279 278 277 276 275 275 276 275 275 274 274 273
302 308 304 299 300 304 297 300 298 300 308 310 310 314 298 296 294 290 289 288 287 287 287 286 286 286 286 285 283 281 280 278 277 276 275 274 274 274 274 274 273 273 273 273
303 303 306 301 299 296 300 302 302 304 306 303 308 311 300 296 294 291 290 288 286 287 286 285 285 285 284 283 281 279 278 276 275 274 273 272 273 273 273 273 273 273 272 272
301 303 304 309 300 295 296 295 300 299 302 307 309 311 292 292 290 289 288 287 287 287 286 285 284 283 282 281 279 277 276 275 274 273 272 271 271 272 272 272 272 271 271 271
304 304 308 314 311 301 297 293 295 300 304 306 306 306 305 296 290 288 288 287 286 286 285 284 283 282 281 279 277 276 274 273 272 271 270 270 271 271 271 271 271 270 270 270
302 308 304 308 310 303 306 308 299 299 302 305 308 308 306 305 299 289 288 285 286 286 285 283 282 280 278 277 275 274 273 271 271 270 269 270 270 270 270 270 269 268 269 269
297 306 304 306 305 303 304 305 305 304 304 303 303 304 304 303 290 289 287 287 287 286 285 284 282 280 278 276 275 273 271 270 269 269 269 269 269 269 269 268 268 267 267 268
298 301 303 311 305 303 306 306 305 305 304 303 303 303 303 299 289 287 287 287 288 286 284 282 279 277 275 274 272 270 269 269 268 268 267 267 268 267 267 266 266 266 266 267
300 302 305 308 303 308 308 296 300 302 302 300 300 300 297 292 289 287 287 287 286 284 282 280 276 273 273 272 270 269 268 268 267 267 266 267 266 265 265 264 264 264 266 267
305 308 308 308 307 307 308 305 296 296 303 297 299 299 298 288 286 286 285 283 283 281 278 276 274 273 271 270 268 267 267 267 266 266 265 265 264 263 263 262 263 265 267 267
303 303 309 301 304 308 309 290 289 293 300 298 296 297 289 288 289 287 283 281 279 277 276 274 272 271 270 268 267 266 266 265 265 264 263 263 262 261 261 262 264 265 266 267
301 302 307 309 310 302 300 289 289 299 307 291 292 290 289 290 290 286 282 280 278 276 274 272 271 269 268 267 266 265 265 264 263 262 261 260 260 260 263 263 263 265 266 267
301 302 300 305 302 306 293 288 296 298 290 290 288 288 289 287 284 284 282 279 276 274 272 271 269 268 267 265 264 264 263 262 261 260 259 259 260 262 263 262 263 264 265 266
307 303 300 301 301 297 293 292 293 292 291 289 289 288 288 286 284 283 281 278 276 273 272 269 267 266 266 264 263 262 261 260 259 258 258 259 261 262 262 263 263 264 264 266
297 300 300 300 303 299 293 294 292 291 292 290 290 288 288 287 285 283 280 277 274 272 270 267 266 265 264 263 262 260 259 258 257 257 258 260 261 262 262 262 263 264 264 265
302 300 302 302 303 299 299 293 292 291 290 289 288 288 288 287 285 282 279 275 273 270 268 266 265 264 262 262 261 260 258 257 256 257 259 259 260 261 262 262 262 264 265 266
300 304 304 307 305 304 303 295 292 291 291 289 288 286 285 286 284 280 276 273 271 269 266 264 263 262 261 260 260 259 258 257 257 256 258 259 259 260 261 261 262 263 264 265
Wind_Speed
3 3 6 8 6 4 3 5 7 6 6 5 10 16 13 17 8 10 10 9 9 8 9 12 8 9 14 16 16 24 27 27 27 27 27 27 28 31 31 32 35 37 36 36
6 4 5 2 3 4 5 6 8 9 5 3 9 10 9 16 22 21 17 10 10 6 7 9 6 7 13 13 15 25 23 20 26 25 26 25 27 29 29 30 35 37 37 36
5 4 5 3 3 5 4 5 6 8 4 5 8 7 18 3 12 8 8 10 7 10 8 6 5 4 9 13 15 21 23 23 24 30 29 29 29 30 31 33 35 34 36 39
5 1 4 5 5 7 6 3 5 4 4 3 4 9 3 6 15 13 14 10 9 9 7 6 5 1 6 10 15 17 25 21 24 30 27 26 26 30 30 33 37 39 37 38
8 6 6 6 7 7 8 0 4 3 5 3 6 5 5 3 8 14 17 13 9 9 8 8 6 1 6 8 12 18 23 19 26 28 28 28 25 27 31 33 36 35 36 32
6 0 5 6 2 1 1 3 4 3 2 2 7 9 5 6 10 8 15 12 11 9 8 7 5 2 6 10 8 19 18 24 27 31 30 27 28 29 31 35 35 35 36 32
2 4 1 2 2 3 3 5 4 5 2 7 5 3 16 8 7 11 23 17 11 9 8 6 5 5 6 9 10 20 21 23 30 30 28 27 29 30 29 30 32 39 38 34
4 7 8 4 6 7 5 6 5 6 4 15 2 8 6 4 7 7 11 14 9 9 7 7 8 7 8 9 12 22 25 28 28 28 29 29 30 28 29 30 34 37 35 39
7 7 2 1 1 4 4 5 2 1 2 3 5 7 6 4 3 6 11 10 9 9 8 8 8 8 10 9 16 25 28 30 29 31 32 31 27 28 31 32 35 35 37 38
4 6 2 2 1 0 4 4 3 1 3 6 7 10 12 7 10 8 11 13 10 8 8 7 6 9 8 11 21 23 23 26 29 29 27 28 29 30 31 32 36 37 38 36
6 5 2 4 8 10 1 3 3 2 5 4 4 16 7 15 17 19 17 15 12 10 8 7 8 8 6 11 15 18 21 26 27 28 30 30 31 30 32 32 36 36 36 35
8 5 6 13 2 2 2 10 12 5 6 7 2 16 2 9 12 18 17 14 9 8 8 7 6 5 9 11 16 19 22 24 27 30 30 31 31 33 33 33 35 35 38 35
9 4 2 6 2 2 6 6 10 1 2 22 8 14 1 1 7 11 15 12 9 8 7 4 4 6 8 12 16 20 23 26 26 29 28 31 31 32 33 35 36 37 36 36
13 7 9 17 13 5 6 9 10 17 13 20 28 36 28 13 8 6 7 8 9 8 7 5 4 6 9 11 13 18 23 24 27 27 28 30 30 33 35 36 36 36 35 35
9 13 9 22 20 4 15 24 13 22 27 19 39 32 30 26 13 16 18 9 10 8 7 6 6 5 8 9 15 21 22 27 27 28 29 29 32 34 35 35 36 35 34 33
3 8 5 15 10 8 20 27 23 25 30 27 36 39 39 26 3 9 14 14 11 8 7 7 6 4 6 12 17 20 25 27 27 28 28 31 33 33 35 35 35 35 34 31
9 6 4 20 4 4 14 27 26 21 25 21 22 37 31 18 8 12 15 16 13 10 9 7 2 3 8 12 15 18 25 27 27 27 30 31 32 35 35 36 35 34 33 31
9 7 4 4 5 7 11 2 7 20 24 18 24 27 16 5 3 7 13 13 11 10 7 4 1 6 8 13 15 20 23 26 26 28 30 31 33 34 35 35 35 35 33 32
15 13 7 6 9 10 26 9 9 9 30 22 28 28 17 7 5 1 5 7 9 7 5 6 4 5 9 12 19 20 21 21 24 26 30 32 33 35 35 35 35 35 36 35
10 9 9 4 6 10 16 4 5 8 17 16 22 20 9 11 5 6 11 8 8 9 10 7 5 5 9 14 17 18 21 24 24 28 32 33 32 32 33 34 36 37 35 35
5 4 19 17 11 10 11 10 7 5 14 6 10 10 14 9 5 6 13 7 9 10 10 7 6 7 9 13 15 17 19 21 27 31 33 33 32 31 30 34 35 33 34 34
12 12 6 6 4 16 15 7 12 4 1 5 5 8 9 7 9 15 14 12 11 9 9 6 4 5 9 12 15 17 18 24 27 31 34 34 32 30 31 33 33 31 31 30
7 11 9 13 11 3 23 7 20 5 6 5 6 6 12 13 9 14 12 11 9 10 9 5 5 5 8 12 15 16 22 24 29 34 33 30 29 29 29 31 31 28 27 26
6 9 5 4 21 23 18 12 12 6 6 6 5 10 14 13 13 11 11 10 9 10 8 5 5 4 7 14 15 18 21 24 29 31 28 27 28 31 29 28 27 26 25 26
8 15 16 10 22 3 17 20 13 12 8 7 7 9 15 12 12 13 9 9 9 12 9 8 5 2 5 11 14 18 21 24 26 23 23 24 25 27 28 26 28 28 26 29
9 14 11 13 16 12 9 22 20 18 16 14 15 6 4 11 13 10 10 10 13 12 11 9 6 3 5 9 12 18 20 21 23 20 20 23 24 26 27 29 29 27 30 30
Wind_Direction
340 61 243 250 211 198 209 236 230 254 255 223 233 246 205 200 204 204 202 196 185 189 184 161 125 60 28 25 18 12 9 6 357 356 350 343 337 332 326 324 322 318 316 313
5 255 226 186 225 238 232 261 265 285 240 210 269 248 227 192 211 206 192 192 187 191 181 173 137 53 26 20 14 10 5 356 351 351 345 338 332 325 322 323 319 318 316 313
170 256 114 171 232 257 231 213 252 241 337 290 284 248 242 220 223 193 193 193 183 182 184 178 157 51 15 12 7 4 354 344 346 345 340 336 330 331 326 322 319 315 313 310
231 256 186 221 232 174 276 227 256 281 355 260 348 294 258 193 223 204 190 196 185 188 181 160 153 19 5 358 351 353 346 340 340 341 336 330 331 321 315 312 315 312 312 307
252 178 191 218 225 165 237 188 263 265 259 349 230 255 240 142 244 211 197 192 189 192 174 166 165 298 339 339 336 343 342 332 336 336 335 327 313 307 308 310 308 307 311 304
249 273 188 210 139 177 32 333 299 46 99 255 233 196 221 192 218 196 202 187 187 183 176 169 181 234 298 320 315 335 329 334 335 340 331 315 305 309 312 309 306 311 311 302
334 222 59 158 128 17 81 56 312 334 344 237 180 232 258 234 225 196 196 181 183 178 169 185 205 238 276 299 307 332 332 333 340 333 322 312 308 306 300 302 304 308 305 301
212 302 176 181 198 186 177 177 168 262 251 293 350 245 252 289 306 231 174 164 170 174 178 192 212 242 273 271 313 332 342 336 331 324 318 314 304 297 296 300 301 297 292 297
180 266 119 240 174 159 179 187 152 192 127 7 238 277 275 82 48 103 146 161 182 185 189 203 219 238 266 272 324 343 342 332 325 321 317 307 300 300 296 300 301 294 290 293
215 288 208 174 173 13 167 154 69 8 288 274 263 274 248 199 207 186 183 192 196 194 198 209 224 253 255 320 336 336 331 322 321 316 308 306 304 302 299 301 299 295 291 290
145 179 185 120 208 183 158 214 199 200 162 228 295 283 207 192 203 192 201 195 190 193 194 210 228 261 262 303 311 319 327 325 318 316 314 311 304 304 303 300 298 294 294 291
200 169 202 211 237 280 244 208 186 191 223 235 219 259 168 206 196 195 202 192 187 184 191 208 221 227 266 285 318 326 329 324 322 317 311 309 308 310 307 302 299 297 296 293
178 213 315 312 359 331 224 211 219 358 299 248 239 266 25 181 155 197 185 183 187 180 192 214 231 267 286 299 320 328 331 325 318 313 312 311 309 310 306 304 302 301 297 295
148 187 181 240 238 137 218 200 203 213 239 255 243 263 261 253 203 203 194 185 183 186 196 215 271 271 271 291 316 330 327 324 317 315 314 311 313 310 306 305 303 303 300 296
172 236 194 247 260 194 263 260 206 218 238 237 261 261 265 266 235 203 200 174 178 183 199 214 242 244 254 315 338 338 329 323 320 317 316 313 313 310 307 308 306 304 302 299
193 246 154 257 244 223 259 264 254 245 251 249 254 267 266 277 148 163 177 177 180 188 196 215 229 249 347 349 343 331 322 319 321 317 315 315 314 314 312 311 310 308 305 303
168 184 139 256 119 359 273 252 239 247 243 233 245 246 263 261 194 176 176 179 180 183 191 209 202 6 360 349 331 318 317 318 320 319 319 318 318 316 316 315 314 310 307 306
167 190 153 252 102 233 258 125 186 219 247 219 246 255 242 196 155 155 173 163 171 177 182 167 110 15 357 335 327 324 324 325 323 321 320 322 320 318 317 317 316 310 309 308
216 208 221 220 213 306 292 230 178 177 273 202 228 244 247 126 76 320 157 160 163 161 150 149 87 27 349 343 336 328 323 324 325 324 322 322 320 318 317 316 317 313 314 310
214 233 209 154 206 225 259 136 147 137 274 195 209 231 146 140 180 216 176 148 140 142 155 126 72 38 360 348 338 331 331 330 326 325 320 320 318 315 314 315 317 315 313 310
156 191 215 227 242 270 218 160 151 150 261 172 181 163 157 189 196 143 145 138 148 156 127 99 71 34 359 347 342 338 331 325 323 322 321 321 320 317 321 320 318 318 317 314
167 168 193 204 212 260 141 117 188 205 42 147 143 157 165 131 129 143 148 151 157 142 123 107 75 33 5 354 349 338 330 327 325 325 325 326 326 326 327 325 321 324 322 319
192 187 178 192 211 197 181 191 204 151 149 179 159 153 151 144 160 161 160 152 143 136 133 116 65 27 1 356 355 331 327 332 328 331 331 327 329 332 334 331 325 329 328 327
241 192 221 128 244 229 206 217 194 170 161 154 160 152 161 164 162 159 146 143 141 143 139 135 87 38 355 352 349 342 336 335 338 335 329 333 336 336 339 338 332 333 334 330
181 157 207 242 266 8 226 217 194 186 161 146 137 166 176 155 167 158 149 147 145 144 143 130 112 70 11 350 344 350 345 349 345 334 333 337 339 339 338 343 338 339 342 340
193 195 191 225 226 205 239 198 193 186 182 161 165 167 172 162 162 153 148 146 142 145 145 132 121 94 21 357 348 353 355 357 356 340 341 342 342 342 342 341 339 348 355 357